STARLINK-11579, 63143

Orbit data source: Space-Track

STARLINK-11579, 63143 is a payload satellite owned by SpaceX/Seattle (US) in LEO that was launched on Mon, 03 Mar 2025 UTC via an FALCON 9 launch vehicle from the Air Force Eastern Test Range (AFETR). Payload-class satellites include a variety of spacecraft equipped with specific instruments for various scientific and technological missions. These include communications satellites like Starlink; space stations such as the ISS; scientific satellites like the Hubble; Earth observation satellites from companies like Planet Labs, Umbra, and HawkEye 360; GPS; miniature CubeSats for education and research; and military/defense satellites.

Loading next visibility...
Identifier
63143, 2025-043M
Orbit
LEO
Country
Flag of USUS
Related business
Manufacturer
SpaceX/Seattle
Mission
Operational Commercial Communications
Bus & Motor
STARLINK V2MD, Unknown motor
Mass
960 kg wet, ~910 kg dry
Launch date (UTC)
2025-03-03 (8 months ago)
Launch vehicle
FALCON 9
Launch site
Air Force Eastern Test Range (AFETR)
Object type
Payload
Rocket body
Debris
Shape & HBR
Box + 2 Pan, 18.1 m
Radar Cross Section
36.964 m², Large (>1 m²)

Expand to show TLE details & history
Last TLE update: 12 hours ago

TLE from 12 hours ago
0 STARLINK-11579
1 63143U 25043M   25306.44529241  .00309153  00000-0  23121-2 0  9990
2 63143  42.9992 297.3656 0001837 271.9142  88.1516 15.70965178 39344
Epoch: 2025-11-02T10:41Z
TLE epoch observation values (Epoch: 2025-11-02T10:41:13.264Z)
Latitude
0.00004°
Longitude
95.09946°
Altitude
355.869 km
Speed
7.698 km/s
True Right ascension
19h 49m 27s
True Declination
0° 00' 00"
Sunlit
Object was in daylight at epoch
Visualization orbit readout
Latitude
Unknown
Longitude
Unknown
Altitude
Unknown
Speed
Unknown
Apparent Right ascension
Unknown
Apparent Declination
Unknown
Sunlit
N/A
Visualization observer readout
Local Sidereal Time
18:38:56
Azimuth
Unknown
Elevation
Unknown
Doppler factor
Unknown
Orbital elements
Apogee altitude
359.357 km
Perigee altitude
356.882 km
Semi-major axis
6,736.256 km
Eccentricity
0.00018
Inclination
42.9992°
RAAN
297.3656°
Arg. of periapsis
271.9142°
True anomaly
88.17264°
Mean anomaly
88.1516°
Eccentric anomaly
88.16212°
Mean motion
3.92568 °/min
Orbital period
91.7 mins
BSTAR
0.0023121
Loading maneuver chart data...
Computing Atmospheric mass density...
Loading historical data...
Loading historical data...
Loading historical data...
Loading historical data...
Loading historical data...
Loading historical data...
Loading historical data...

Documentation

Showing up to 5 results
|